Flag for France Weather past 2 weeks in Toulon, France

Now
75 °F

Clear.


Feels Like: 78 °F
Forecast: 62 / 70 °F
Wind: 21 mph from East

Location: Hyeres Airport

Current Time: Sep 23, 2014 at 1:31:51 PM

Latest Report: Sep 23, 2014 at 1:00 PM


Visibility: N/A

Pressure: 29.92 "Hg

Humidity: 57%

Dew point: 59 °F

Location of ToulonLocation

Historic Weather in Toulon — Graph

°F

Toulon temperature yesterday

Maximum temperature yesterday: 81 °F (at 12:00 PM)
Minimum temperature yesterday: 61 °F (at 6:30 AM)
Average temperature yesterday: 73 °F

Past Weeks' High & Low Weather Summary

 TemperatureHumidityPressure
High82 °F (Sep 10, 3:30 PM)100% (Sep 19, 1:00 PM)30.04 "Hg (Sep 19, 1:00 PM)
Low55 °F (Sep 12, 7:30 AM)37% (Sep 22, 12:00 PM)29.74 "Hg (Sep 11, 5:00 PM)
Average72 °F74%29.91 "Hg
* Reported Sep 8 12:00 Noon — Sep 23 12:30 PM, Toulon, Weather by CustomWeather, © 2014

Note: Actual official high and low records may vary slightly from our data, if they occured in-between our weather recording intervals... More about our weather records

Advertising

Toulon weather history for previous 24 hours

 ConditionsComfort  
Time TempWeatherWind HumidityBarometerVisibility
12:30 PM
Sep 23
75 °FClear.22 mph50%29.89 "HgN/A
12:00 PM75 °FClear.21 mph47%29.89 "HgN/A
11:30 AM75 °FMild.20 mph54%29.89 "HgN/A
11:00 AM73 °FScattered clouds.20 mph57%29.89 "HgN/A
10:30 AM73 °FBroken clouds.20 mph74%29.89 "HgN/A
10:00 AM73 °FMostly cloudy.18 mph74%29.86 "HgN/A
9:30 AM73 °FMostly cloudy.20 mph74%29.86 "HgN/A
9:00 AM73 °FPartly sunny.17 mph74%29.86 "HgN/A
8:30 AM73 °FPartly sunny.17 mph69%29.83 "HgN/A
8:00 AM72 °FPassing clouds.18 mph73%29.83 "HgN/A
7:30 AM72 °FMostly cloudy.15 mph78%29.83 "HgN/A
7:00 AM72 °FPassing clouds.12 mph78%29.83 "HgN/A
6:30 AM72 °FMostly cloudy.15 mph78%29.80 "HgN/A
6:00 AM70 °FMostly cloudy.9 mph83%29.80 "HgN/A
5:30 AM68 °FPassing clouds.8 mph83%29.80 "HgN/A
5:00 AM68 °FPartly cloudy.6 mph83%29.80 "HgN/A
4:30 AM68 °FPartly cloudy.6 mph83%29.80 "HgN/A
4:00 AM66 °FClear.5 mph83%29.80 "HgN/A
3:30 AM66 °FClear.3 mph83%29.80 "HgN/A
3:00 AM66 °FClear.7 mph78%29.80 "HgN/A
2:30 AM66 °FPassing clouds.8 mph73%29.80 "HgN/A
2:00 AM64 °FPassing clouds.7 mph73%29.80 "HgN/A
1:30 AM64 °FClear.3 mph68%29.80 "HgN/A
1:00 AM66 °FClear.1 mph64%29.77 "HgN/A
12:30 AM68 °FClear.7 mph60%29.77 "HgN/A
12:00 AM68 °FClear.3 mph60%29.77 "HgN/A
11:30 PM
Sep 22
70 °FClear.6 mph57%29.77 "HgN/A
11:00 PM68 °FClear.6 mph64%29.74 "HgN/A
10:30 PM70 °FClear.6 mph64%29.77 "HgN/A
10:00 PM66 °FClear.2 mph73%29.77 "HgN/A
9:30 PM68 °FClear.3 mph73%29.77 "HgN/A
9:00 PM70 °FClear.No wind64%29.77 "HgN/A
8:30 PM70 °FClear.2 mph64%29.77 "HgN/A
7:30 PM75 °FClear.6 mph54%29.77 "HgN/A
7:00 PM77 °FClear.1 mph51%29.77 "HgN/A
6:30 PM79 °FClear.5 mph48%29.77 "HgN/A
6:00 PM79 °FClear.7 mph48%29.77 "HgN/A
5:30 PM81 °FClear.7 mph48%29.77 "HgN/A
5:00 PM79 °FClear.9 mph51%29.77 "HgN/A
4:30 PM81 °FClear.13 mph45%29.77 "HgN/A
4:00 PM79 °FClear.15 mph48%29.77 "HgN/A
3:30 PM79 °FClear.14 mph48%29.80 "HgN/A
3:00 PM79 °FClear.13 mph42%29.80 "HgN/A
2:30 PM79 °FClear.12 mph48%29.80 "HgN/A
2:00 PM79 °FClear.6 mph45%29.83 "HgN/A
1:30 PM81 °FClear.9 mph37%29.83 "HgN/A
1:00 PM81 °FClear.5 mph37%29.86 "HgN/A
Weather by CustomWeather, © 2014

See weather overviewHow to use our weather pages